Location: Newark
(35.8833°N, 14.5000°E)
Time: 12:47:17
(UTC+00:00)

Altair - Pass Details

Date: 26 November 2019
Orbit: 1502 x 1682 km, 47.2° (Epoch: 14 December)

Event Time Altitude Azimuth Distance (km) Brightness Sun altitude
Rises 07:21:32 0° 301° (WNW) 4,649 9.4 14.9°
Reaches altitude 10° 07:24:41 10° 295° (WNW) 3,678 9.0 15.4°
Maximum altitude 07:33:20 46° 226° (SW) 1,980 8.3 16.7°
Drops below altitude 10° 07:42:17 10° 157° (SSE) 3,783 11.1 18.0°
Sets 07:45:35 0° 151° (SSE) 4,792 11.5 18.5°
